[[{"header":{"parameterUnit":"m.s-1","parameterCategory":1,"la1":30.2991,"la2":30.254,"lo1":-89.0895,"lo2":-89.0444,"dy":0.0017,"dx":0.0017,"nx":28,"ny":28,"refTime":"2024-05-19T21:00:00:Z","depth":0,"parameterNumber":2,"parameterNumberName":"U-component_of_WINDS"},"data":[0,0,0,0,0,0,0,0,0,0,0,0,0,0,0,0,0,0,0,0,0,0,0,0,0,0,0,0,0,0,0,0,0,0,0,0,0,0,0,0,0,0,0,0,0,0,0,0,0,0,0,0,0,0,0,0,0,0,-2.2931,-2.293,0,-2.2831,-2.283,-2.2829,-2.2752,-2.2751,-2.2751,-2.275,-2.265,-2.2648,-2.2646,0,0,0,0,0,0,0,0,0,0,0,0,0,-2.3059,-2.3057,-2.2931,-2.293,-2.2929,-2.2832,-2.283,-2.2829,-2.2752,-2.2751,-2.275,-2.275,-2.2651,-2.2648,-2.2646,0,0,0,0,0,0,0,0,0,0,0,0,0,-2.2986,-2.3057,-2.2932,-2.2879,-2.2873,-2.2832,-2.283,-2.2828,-2.2752,-2.2751,-2.275,-2.2749,-2.2651,-2.2649,-2.2646,-2.2649,0,0,-2.2637,-2.2635,0,0,0,0,0,0,0,0,-2.299,-2.2981,-2.2888,-2.2882,-2.2876,-2.2803,-2.2839,-2.2769,-2.2753,-2.2798,-2.275,-2.2749,-2.2702,-2.2695,-2.2679,-2.2645,-2.2641,-2.2636,-2.2635,-2.2633,-2.2632,0,0,0,0,0,0,0,-2.2995,-2.2985,-2.2892,-2.2887,-2.2879,-2.2861,-2.285,-2.2825,-2.2758,-2.2794,-2.2788,-2.2777,-2.2699,-2.2682,-2.2676,-2.2639,-2.2636,-2.2634,-2.2632,-2.2631,-2.2606,-2.2607,0,0,0,0,0,0,-2.3008,-2.299,-2.2895,-2.2889,-2.2931,-2.286,-2.2847,-2.2828,-2.2758,-2.2746,-2.2779,-2.2774,-2.2687,-2.2679,-2.2672,-2.2673,-2.2633,-2.2631,-2.2629,-2.2605,-2.2606,-2.2607,0,0,0,0,0,0,-2.3011,-2.3001,-2.2899,-2.2938,-2.2923,-2.2859,-2.2838,-2.2826,-2.2809,-2.2746,-2.2734,-2.2773,-2.2686,-2.2676,-2.2656,-2.2669,-2.2629,-2.2627,-2.2603,-2.2605,-2.2607,-2.2675,0,0,0,0,0,0,-2.3015,-2.3002,-2.3002,-2.2938,-2.2922,-2.2884,-2.2838,-2.2825,-2.2804,-2.2797,-2.2738,-2.2727,-2.2684,-2.2661,-2.2653,-2.2664,-2.2624,-2.2602,-2.2604,-2.2606,-2.2671,-2.2679,-2.2685,0,0,0,0,0,-2.302,-2.3025,-2.3002,-2.2991,-2.292,-2.2885,-2.2875,-2.2826,-2.2805,-2.2805,-2.2765,-2.2729,-2.2668,-2.2659,-2.265,-2.266,-2.2601,-2.2604,-2.2606,-2.2668,-2.2677,-2.2685,0,0,0,0,0,0,-2.3092,-2.3016,-2.299,-2.2974,-2.2936,-2.2872,-2.287,-2.2837,-2.2804,-2.28,-2.274,-2.2728,-2.2715,-2.2685,-2.2676,-2.2661,-2.263,-2.2631,-2.2681,-2.2689,-2.2696,-2.2704,-2.2622,0,0,0,0,0,-2.3106,-2.3083,-2.3018,-2.301,-2.2993,-2.2935,-2.2918,-2.2883,-2.2842,-2.2826,-2.2784,-2.2746,-2.2719,-2.2702,-2.2673,-2.2667,-2.2654,-2.2669,-2.2676,-2.2682,-2.2684,-2.268,-2.2687,-2.2615,-2.2615,-2.2615,0,0,-2.3135,-2.309,-2.3079,-2.3024,-2.2991,-2.2969,-2.2922,-2.2901,-2.2885,-2.2823,-2.2801,-2.277,-2.2724,-2.2711,-2.2703,-2.2686,-2.2701,-2.2685,-2.2691,-2.2689,-2.2683,-2.269,-2.2696,-2.2617,-2.2617,-2.2617,0,0,-2.3177,-2.314,-2.3131,-2.3099,-2.3049,-2.3011,-2.3009,-2.2949,-2.2926,-2.2903,-2.2857,-2.2838,-2.2791,-2.2761,-2.274,-2.2773,-2.2739,-2.2765,-2.2801,-2.2798,-2.2804,-2.2809,-2.2822,-2.2827,-2.2767,-2.2767,-2.2767,0,-2.3219,-2.3184,-2.313,-2.3112,-2.309,-2.3033,-2.3024,-2.2996,-2.294,-2.2926,-2.2908,-2.2849,-2.2814,-2.2795,-2.2803,-2.2787,-2.2784,-2.2771,-2.2807,-2.2812,-2.2815,-2.2827,-2.2832,-2.277,-2.277,-2.277,-2.2769,0,-2.3239,-2.3216,-2.3214,-2.3162,-2.3139,-2.3126,-2.3072,-2.3056,-2.3024,-2.2988,-2.2967,-2.2923,-2.2886,-2.2878,-2.2846,-2.2855,-2.2846,-2.2818,-2.2786,-2.2827,-2.2837,-2.2841,-2.2775,-2.2774,-2.2773,-2.2772,0,0,-2.3322,-2.3241,-2.3242,-2.3218,-2.316,-2.3142,-2.3127,-2.3089,-2.3078,-2.3042,-2.3029,-2.2992,-2.2966,-2.2942,-2.2907,-2.2904,-2.2935,-2.2877,-2.2875,-2.289,-2.2944,-2.2966,-2.2972,-2.2912,-2.2913,-2.2913,-2.2948,0,-2.3356,-2.3325,-2.3277,-2.3263,-2.3242,-2.3188,-2.3175,-2.3139,-2.3106,-2.3084,-2.3048,-2.3023,-2.299,-2.2976,-2.2971,-2.2933,-2.2945,-2.2929,-2.2901,-2.2901,-2.2915,-2.2977,-2.3,-2.3035,-2.2952,-2.2953,-2.2953,0,-2.339,-2.3357,-2.3341,-2.3286,-2.3276,-2.3265,-2.3228,-2.3207,-2.3166,-2.3142,-2.3117,-2.3078,-2.3062,-2.3032,-2.3009,-2.3,-2.2986,-2.2965,-2.2966,-2.2962,-2.293,-2.2976,-2.3044,-2.305,-2.2959,-2.2958,-2.2958,0,-2.3455,-2.3406,-2.339,-2.3372,-2.3307,-2.3301,-2.3274,-2.3232,-2.3213,-2.3181,-2.3169,-2.3136,-2.3118,-2.3094,-2.3049,-2.3031,-2.3032,-2.2998,-2.3013,-2.3014,-2.3016,-2.3016,-2.3084,-2.3005,-2.3005,-2.3005,-2.3005,0,-2.3497,-2.349,-2.3419,-2.3409,-2.34,-2.3346,-2.3338,-2.3307,-2.327,-2.3254,-2.3206,-2.3193,-2.3133,-2.3113,-2.3077,-2.3065,-2.3057,-2.3039,-2.3029,-2.3043,-2.3046,-2.3034,-2.3031,-2.3007,-2.3006,-2.3006,-2.3006,0,-2.3568,-2.3519,-2.3499,-2.344,-2.3425,-2.3421,-2.3371,-2.3361,-2.3325,-2.3306,-2.3299,-2.3244,-2.3218,-2.317,-2.3131,-2.3107,-2.3103,-2.3086,-2.3117,-2.3112,-2.313,-2.3129,-2.3192,-2.3199,-2.3116,-2.3117,-2.3117,0,-2.3598,-2.3591,-2.3532,-2.3518,-2.3493,-2.3471,-2.3452,-2.3399,-2.3381,-2.3335,-2.3331,-2.3302,-2.3275,-2.3238,-2.3195,-2.3165,-2.3148,-2.3172,-2.3143,-2.3158,-2.315,-2.3152,-2.3151,-2.3179,-2.318,-2.3181,-2.3182,0,-2.3659,-2.3636,-2.3609,-2.3576,-2.3555,-2.3526,-2.3494,-2.3486,-2.3427,-2.341,-2.3383,-2.3363,-2.3323,-2.3296,-2.326,-2.3234,-2.3199,-2.3192,-2.3194,-2.3208,-2.3227,-2.3219,-2.3136,-2.319,-2.319,-2.3189,-2.3189,-2.3188,-2.371,-2.3702,-2.366,-2.3633,-2.3604,-2.3577,-2.3565,-2.3528,-2.3505,-2.3468,-2.3439,-2.3415,-2.3376,-2.3325,-2.3301,-2.3283,-2.3266,-2.3269,-2.3269,-2.3271,-2.3278,-2.323,-2.3276,-2.3276,-2.3275,-2.3275,-2.3275,0,-2.3769,-2.374,-2.3716,-2.3674,-2.3653,-2.3622,-2.3586,-2.3572,-2.3551,-2.3517,-2.3493,-2.3463,-2.3437,-2.3392,-2.3363,-2.3357,-2.334,-2.3351,-2.3351,-2.3346,-2.3294,-2.3295,-2.3365,-2.3365,-2.3365,-2.3365,-2.3365,-2.3365,-2.3797,-2.3783,-2.3755,-2.3727,-2.3697,-2.3673,-2.3656,-2.3631,-2.3604,-2.3573,-2.3551,-2.3522,-2.3484,-2.3452,-2.3427,-2.3414,-2.3406,-2.3422,-2.3406,-2.3358,-2.3349,-2.3341,-2.3343,-2.3421,-2.3421,-2.3459,-2.346,-2.346]},{"header":{"parameterUnit":"m.s-1","parameterCategory":1,"la1":30.2991,"la2":30.254,"lo1":-89.0895,"lo2":-89.0444,"dy":0.0017,"dx":0.0017,"nx":28,"ny":28,"refTime":"2024-05-19T21:00:00:Z","depth":0,"parameterNumber":3,"parameterNumberName":"V-component_of_WINDS"},"data":[0,0,0,0,0,0,0,0,0,0,0,0,0,0,0,0,0,0,0,0,0,0,0,0,0,0,0,0,0,0,0,0,0,0,0,0,0,0,0,0,0,0,0,0,0,0,0,0,0,0,0,0,0,0,0,0,0,0,0.3826,0.3825,0,0.3753,0.3752,0.3751,0.3719,0.372,0.372,0.372,0.3647,0.3645,0.3643,0,0,0,0,0,0,0,0,0,0,0,0,0,0.3939,0.3937,0.3826,0.3825,0.3824,0.3753,0.3752,0.3751,0.3719,0.372,0.372,0.372,0.3648,0.3646,0.3643,0,0,0,0,0,0,0,0,0,0,0,0,0,0.3881,0.3937,0.3826,0.38,0.3796,0.3753,0.3752,0.3751,0.3719,0.372,0.372,0.372,0.3649,0.3646,0.3643,0.3621,0,0,0.3634,0.3632,0,0,0,0,0,0,0,0,0.3884,0.3877,0.3804,0.3801,0.3798,0.3745,0.3766,0.3707,0.3719,0.3749,0.372,0.372,0.368,0.3674,0.3661,0.3618,0.3615,0.3633,0.3632,0.363,0.3629,0,0,0,0,0,0,0,0.3888,0.388,0.3797,0.3803,0.3799,0.3792,0.3784,0.3754,0.3715,0.3746,0.3744,0.3735,0.3678,0.3664,0.3659,0.3614,0.3634,0.3631,0.3629,0.3628,0.355,0.3549,0,0,0,0,0,0,0.3896,0.3883,0.3799,0.3795,0.3842,0.379,0.3781,0.3762,0.3715,0.3708,0.3735,0.3734,0.3669,0.3662,0.3656,0.3627,0.363,0.3627,0.3626,0.355,0.3549,0.3549,0,0,0,0,0,0,0.3899,0.3889,0.3802,0.3838,0.3827,0.3788,0.3767,0.3761,0.3746,0.3706,0.3699,0.3727,0.3669,0.366,0.363,0.3624,0.3626,0.3623,0.355,0.355,0.3549,0.357,0,0,0,0,0,0,0.3902,0.389,0.3881,0.3838,0.3825,0.3777,0.3767,0.3759,0.374,0.3738,0.3697,0.3691,0.3668,0.3635,0.3627,0.362,0.3621,0.355,0.355,0.3549,0.3569,0.357,0.3571,0,0,0,0,0,0.3906,0.389,0.3881,0.3871,0.3812,0.3777,0.3769,0.3743,0.374,0.3731,0.3706,0.3692,0.3626,0.3632,0.3623,0.3615,0.3551,0.355,0.3549,0.3569,0.357,0.3571,0,0,0,0,0,0,0.3934,0.3884,0.3873,0.3842,0.3814,0.3771,0.3759,0.3744,0.3717,0.3716,0.3685,0.3676,0.3648,0.3629,0.3636,0.3592,0.3587,0.3585,0.3605,0.3606,0.3607,0.3612,0.3618,0,0,0,0,0,0.3937,0.3911,0.3869,0.3846,0.3832,0.3798,0.3782,0.3764,0.3733,0.3721,0.3694,0.3665,0.3638,0.3621,0.3594,0.3567,0.3557,0.3557,0.3558,0.3558,0.3557,0.3541,0.354,0.3547,0.3547,0.3547,0,0,0.3942,0.3911,0.3897,0.3851,0.3827,0.3801,0.3788,0.3762,0.3743,0.3717,0.3687,0.3666,0.3632,0.3603,0.3589,0.3586,0.3552,0.3558,0.3558,0.3556,0.354,0.3539,0.3539,0.3547,0.3547,0.3547,0,0,0.3938,0.3912,0.389,0.3866,0.3829,0.3806,0.3801,0.3761,0.3745,0.3714,0.3694,0.3672,0.3626,0.3602,0.3584,0.3572,0.3558,0.3564,0.3567,0.3552,0.3552,0.3551,0.3546,0.3545,0.3562,0.3562,0.3562,0,0.3949,0.3909,0.3881,0.3855,0.3836,0.3811,0.3788,0.3767,0.3723,0.3711,0.3708,0.3649,0.3625,0.359,0.3587,0.3573,0.3566,0.3568,0.3554,0.3553,0.3552,0.3547,0.3546,0.3563,0.3563,0.3563,0.3563,0,0.3925,0.3898,0.3884,0.3842,0.3821,0.3798,0.3766,0.3748,0.3732,0.371,0.3679,0.3649,0.3615,0.3605,0.359,0.3569,0.3568,0.356,0.3555,0.3553,0.3548,0.3546,0.3565,0.3564,0.3564,0.3564,0,0,0.3936,0.3878,0.3874,0.3854,0.3812,0.3791,0.3766,0.3733,0.3718,0.3689,0.3668,0.363,0.3622,0.3602,0.3583,0.357,0.3562,0.3564,0.3562,0.3564,0.3536,0.3543,0.3541,0.3553,0.3552,0.3552,0.3539,0,0.3926,0.388,0.3854,0.3819,0.3794,0.377,0.3749,0.3721,0.3699,0.3675,0.3652,0.3625,0.3617,0.3605,0.3591,0.3566,0.3556,0.3566,0.3533,0.3532,0.3542,0.3538,0.3545,0.3534,0.3537,0.3537,0.3536,0,0.3909,0.3879,0.3842,0.3802,0.3791,0.3772,0.3739,0.3716,0.3684,0.3669,0.3647,0.3628,0.3602,0.36,0.3563,0.3571,0.3556,0.3542,0.3541,0.3537,0.3534,0.3534,0.353,0.3529,0.3533,0.3533,0.3534,0,0.3921,0.3872,0.3843,0.3827,0.378,0.3768,0.3748,0.3716,0.3697,0.3668,0.3656,0.3625,0.3608,0.3585,0.3559,0.356,0.3525,0.3521,0.3513,0.3514,0.3507,0.3508,0.35,0.3497,0.3497,0.3498,0.3498,0,0.3912,0.389,0.3848,0.383,0.3805,0.3775,0.3751,0.3729,0.3701,0.3679,0.3657,0.3637,0.3604,0.358,0.356,0.3533,0.3525,0.3513,0.3508,0.3515,0.3517,0.3505,0.3505,0.3497,0.3497,0.3497,0.3497,0,0.3921,0.3892,0.3859,0.3817,0.3806,0.3789,0.3753,0.3736,0.3713,0.3686,0.3678,0.3643,0.3614,0.3585,0.3546,0.3533,0.3506,0.3499,0.3516,0.3513,0.3507,0.3508,0.3492,0.3489,0.3489,0.3489,0.3489,0,0.3918,0.39,0.3856,0.3839,0.382,0.3793,0.3774,0.3744,0.3725,0.3687,0.3674,0.3643,0.3617,0.3571,0.3543,0.3513,0.3505,0.3502,0.3501,0.3508,0.3505,0.3506,0.3504,0.3502,0.3503,0.3503,0.3503,0,0.3915,0.3901,0.3873,0.3841,0.3818,0.3791,0.3764,0.3752,0.3717,0.3697,0.3666,0.3646,0.3606,0.3575,0.3542,0.3522,0.3507,0.3503,0.35,0.3507,0.3518,0.3512,0.3518,0.3504,0.3504,0.3504,0.3504,0.3504,0.3917,0.39,0.3866,0.3837,0.3813,0.3788,0.3769,0.3744,0.3717,0.3682,0.3666,0.3635,0.3604,0.3558,0.3538,0.3514,0.351,0.3505,0.3504,0.3503,0.3505,0.3522,0.3508,0.3508,0.3508,0.3508,0.3508,0,0.3913,0.389,0.3863,0.3824,0.3801,0.3788,0.3757,0.3739,0.3711,0.3683,0.3657,0.3622,0.3593,0.3562,0.3531,0.3517,0.351,0.351,0.3511,0.3506,0.351,0.3516,0.3517,0.3517,0.3517,0.3517,0.3517,0.3517,0.3908,0.3878,0.3861,0.3819,0.3797,0.3766,0.3749,0.3726,0.3703,0.3665,0.364,0.3619,0.359,0.3557,0.3529,0.3521,0.351,0.3513,0.3503,0.3507,0.3506,0.3506,0.3511,0.3511,0.3511,0.3501,0.3501,0.3501]}]]